Kosmos-678

operational
NORAD ID: 7436 Int'l Des: 1974-072 Owner: GUKOSR Country: SU
LEOCIRCULAR

Kosmos-678について

説明を読み込み中...

リアルタイム位置

3D地球を読み込み中...

次回通過

高度履歴

Altitude vs Time

uPlot chart will show altitude changes over time

軌道要素

1 07436U 74072B 26063.56672637 .00000021 00000-0 26666-3 0 9991
2 07436 74.0346 129.9751 0041502 165.3574 263.2907 12.41798729332617
Epoch: Mar 4, 2026 • Age: 21 hours

現在のステータス

高度 1521.7 km
速度 7.10 km/s
衛星直下点 40.87°N, 23.21°E
タイプ other

大規模コンステレーション

Loading constellations...